QPF
0.05 0.08 0.12 0.13 0.16 0.11 0.07 0.05 0.04 0.04 0.04 0.04 0.03 0.03 0.04 0.05 0.08 0.11 0.14 0.18 0.14 0.08 0.05 0.05 0.04 0.03 0.03 0.03 0.04 0.04 0.04 0.03 0.03 0.03 0.03 0.02 0.01 0.01 0.01 0.01 0.00 0.00 0.00
0.04 0.07 0.10 0.12 0.15 0.14 0.10 0.09 0.06 0.06 0.08 0.11 0.10 0.10 0.12 0.14 0.17 0.21 0.24 0.21 0.13 0.09 0.07 0.05 0.03 0.02 0.02 0.02 0.03 0.03 0.02 0.02 0.02 0.02 0.02 0.03 0.02 0.01 0.00 0.00 0.00 0.00 0.00
0.01 0.03 0.06 0.09 0.13 0.16 0.14 0.15 0.17 0.18 0.22 0.23 0.20 0.21 0.25 0.26 0.27 0.26 0.24 0.18 0.12 0.10 0.08 0.06 0.04 0.03 0.02 0.02 0.01 0.01 0.01 0.01 0.01 0.01 0.01 0.01 0.01 0.01 0.00 0.00 0.00 0.00 0.00
0.01 0.02 0.03 0.05 0.08 0.14 0.16 0.18 0.26 0.35 0.41 0.39 0.39 0.39 0.39 0.35 0.30 0.25 0.21 0.18 0.15 0.12 0.09 0.07 0.04 0.02 0.01 0.01 0.01 0.01 0.01 0.01 0.01 0.01 0.01 0.01 0.01 0.00 0.00 0.00 0.00 0.00 0.00
0.01 0.01 0.02 0.03 0.05 0.09 0.14 0.19 0.26 0.31 0.35 0.42 0.49 0.49 0.42 0.35 0.29 0.24 0.20 0.18 0.15 0.09 0.06 0.04 0.02 0.01 0.00 0.00 0.01 0.01 0.02 0.02 0.01 0.01 0.01 0.01 0.00 0.00 0.00 0.00 0.00 0.00 0.00
0.01 0.02 0.02 0.03 0.05 0.08 0.12 0.17 0.21 0.23 0.30 0.34 0.36 0.32 0.29 0.26 0.25 0.23 0.20 0.17 0.11 0.07 0.04 0.02 0.01 0.01 0.01 0.01 0.01 0.01 0.01 0.01 0.01 0.01 0.01 0.00 0.00 0.00 0.00 0.00 0.00 0.00 0.00
0.01 0.02 0.03 0.04 0.05 0.07 0.09 0.11 0.13 0.14 0.16 0.19 0.21 0.19 0.19 0.18 0.18 0.18 0.15 0.11 0.07 0.04 0.03 0.01 0.01 0.01 0.01 0.00 0.00 0.00 0.01 0.01 0.01 0.01 0.00 0.00 0.00 0.00 0.00 0.00 0.00 0.00 0.00
0.03 0.03 0.04 0.04 0.06 0.07 0.07 0.07 0.08 0.10 0.11 0.12 0.14 0.15 0.15 0.15 0.14 0.13 0.10 0.08 0.05 0.03 0.01 0.01 0.00 0.00 0.00 0.00 0.00 0.00 0.00 0.00 0.00 0.00 0.00 0.00 0.00 0.00 0.00 0.00 0.00 0.00 0.00
0.03 0.03 0.03 0.03 0.04 0.04 0.04 0.05 0.06 0.07 0.08 0.10 0.10 0.10 0.12 0.13 0.13 0.12 0.10 0.07 0.04 0.02 0.01 0.00 0.00 0.00 0.00 0.00 0.00 0.00 0.00 0.00 0.00 0.00 0.00 0.00 0.00 0.00 0.00 0.00 0.00 0.00 0.00
0.03 0.03 0.02 0.02 0.02 0.02 0.03 0.04 0.05 0.05 0.06 0.07 0.07 0.08 0.09 0.09 0.08 0.07 0.05 0.03 0.01 0.00 0.00 0.00 0.00 0.00 0.00 0.00 0.00 0.00 0.00 0.00 0.00 0.00 0.00 0.00 0.00 0.00 0.00 0.00 0.00 0.00 0.00
0.02 0.02 0.02 0.02 0.02 0.02 0.02 0.02 0.02 0.03 0.04 0.05 0.05 0.06 0.05 0.04 0.04 0.03 0.02 0.01 0.00 0.00 0.00 0.00 0.00 0.00 0.00 0.00 0.00 0.00 0.00 0.00 0.00 0.00 0.00 0.00 0.00 0.00 0.00 0.00 0.00 0.00 0.00
0.02 0.02 0.02 0.02 0.02 0.02 0.02 0.02 0.02 0.03 0.03 0.03 0.03 0.03 0.03 0.02 0.02 0.01 0.01 0.00 0.00 0.00 0.00 0.00 0.00 0.00 0.00 0.00 0.00 0.00 0.00 0.00 0.00 0.00 0.00 0.00 0.00 0.00 0.00 0.00 0.00 0.00 0.00
0.04 0.03 0.02 0.02 0.02 0.02 0.01 0.02 0.02 0.02 0.02 0.02 0.02 0.02 0.02 0.02 0.01 0.01 0.00 0.00 0.00 0.00 0.00 0.00 0.00 0.00 0.00 0.00 0.00 0.00 0.00 0.00 0.00 0.00 0.00 0.00 0.00 0.00 0.00 0.00 0.00 0.00 0.00
0.12 0.09 0.06 0.04 0.03 0.03 0.02 0.01 0.02 0.02 0.02 0.02 0.02 0.02 0.02 0.01 0.01 0.01 0.01 0.01 0.00 0.00 0.00 0.00 0.00 0.00 0.00 0.00 0.00 0.00 0.00 0.00 0.00 0.00 0.00 0.00 0.00 0.00 0.00 0.00 0.00 0.00 0.00
0.20 0.15 0.11 0.08 0.05 0.04 0.04 0.03 0.03 0.03 0.03 0.04 0.04 0.03 0.03 0.02 0.02 0.01 0.01 0.01 0.00 0.00 0.00 0.00 0.00 0.00 0.00 0.00 0.00 0.00 0.00 0.00 0.00 0.00 0.00 0.00 0.00 0.00 0.00 0.00 0.00 0.00 0.00
0.23 0.21 0.18 0.13 0.11 0.09 0.08 0.07 0.06 0.05 0.04 0.03 0.03 0.02 0.02 0.01 0.01 0.01 0.01 0.00 0.00 0.00 0.00 0.00 0.00 0.00 0.00 0.00 0.00 0.00 0.00 0.00 0.00 0.00 0.00 0.00 0.00 0.00 0.00 0.00 0.00 0.00 0.00
0.26 0.26 0.25 0.23 0.20 0.17 0.14 0.12 0.09 0.07 0.05 0.05 0.04 0.03 0.03 0.02 0.02 0.01 0.01 0.00 0.00 0.00 0.00 0.00 0.00 0.00 0.00 0.00 0.00 0.00 0.00 0.00 0.00 0.00 0.00 0.00 0.00 0.00 0.00 0.00 0.00 0.00 0.00
0.29 0.32 0.30 0.26 0.23 0.19 0.15 0.12 0.09 0.07 0.06 0.05 0.03 0.02 0.02 0.01 0.01 0.01 0.00 0.00 0.00 0.00 0.00 0.00 0.00 0.00 0.00 0.00 0.00 0.00 0.00 0.00 0.00 0.00 0.00 0.00 0.00 0.00 0.00 0.00 0.00 0.00 0.00
0.14 0.15 0.14 0.12 0.10 0.09 0.06 0.05 0.04 0.03 0.02 0.01 0.01 0.01 0.01 0.01 0.01 0.01 0.01 0.00 0.00 0.00 0.00 0.00 0.00 0.00 0.00 0.00 0.00 0.00 0.00 0.00 0.00 0.00 0.00 0.00 0.00 0.00 0.00 0.00 0.00 0.00 0.00
0.06 0.06 0.06 0.05 0.04 0.04 0.03 0.02 0.02 0.01 0.01 0.01 0.00 0.00 0.00 0.00 0.00 0.00 0.00 0.00 0.00 0.00 0.00 0.00 0.00 0.00 0.00 0.00 0.00 0.00 0.00 0.00 0.00 0.00 0.00 0.00 0.00 0.00 0.00 0.00 0.00 0.00 0.00
0.03 0.03 0.03 0.03 0.02 0.02 0.02 0.01 0.01 0.01 0.01 0.00 0.00 0.00 0.00 0.00 0.00 0.00 0.00 0.00 0.00 0.00 0.00 0.00 0.00 0.00 0.00 0.00 0.00 0.00 0.00 0.00 0.00 0.00 0.00 0.00 0.00 0.00 0.00 0.00 0.00 0.00 0.00
0.02 0.02 0.01 0.01 0.01 0.01 0.01 0.01 0.01 0.01 0.01 0.01 0.01 0.01 0.01 0.01 0.01 0.01 0.01 0.00 0.00 0.00 0.00 0.00 0.00 0.00 0.00 0.00 0.00 0.00 0.00 0.00 0.00 0.00 0.00 0.00 0.00 0.00 0.00 0.00 0.00 0.00 0.00
0.01 0.01 0.01 0.01 0.01 0.00 0.01 0.01 0.01 0.01 0.01 0.01 0.00 0.00 0.00 0.00 0.00 0.00 0.00 0.00 0.00 0.00 0.00 0.00 0.00 0.00 0.00 0.00 0.00 0.00 0.00 0.00 0.00 0.00 0.00 0.00 0.00 0.00 0.00 0.00 0.00 0.01 0.01
0.01 0.00 0.00 0.00 0.00 0.00 0.01 0.01 0.01 0.01 0.01 0.01 0.01 0.00 0.00 0.00 0.01 0.00 0.00 0.00 0.00 0.00 0.00 0.00 0.00 0.00 0.00 0.00 0.00 0.00 0.00 0.00 0.00 0.00 0.00 0.00 0.00 0.01 0.01 0.01 0.01 0.02 0.02
0.00 0.00 0.00 0.00 0.00 0.01 0.01 0.01 0.00 0.01 0.01 0.01 0.01 0.01 0.01 0.00 0.01 0.01 0.01 0.00 0.00 0.00 0.00 0.00 0.00 0.00 0.00 0.00 0.00 0.00 0.00 0.00 0.00 0.00 0.00 0.01 0.01 0.01 0.01 0.01 0.02 0.02 0.02
0.00 0.00 0.00 0.00 0.00 0.00 0.00 0.00 0.00 0.00 0.01 0.01 0.01 0.01 0.01 0.01 0.02 0.02 0.02 0.01 0.01 0.00 0.00 0.00 0.00 0.00 0.00 0.00 0.00 0.00 0.00 0.01 0.01 0.01 0.01 0.02 0.02 0.02 0.02 0.02 0.02 0.02 0.01
MSLP
1009.14 1009.74 1010.24 1010.61 1010.83 1010.93 1010.95 1010.95 1011.02 1011.19 1011.49 1011.92 1012.46 1013.04 1013.63 1014.18 1014.64 1015.02 1015.33 1015.59 1015.85 1016.12 1016.45 1016.83 1017.26 1017.73 1018.19 1018.62 1019.00 1019.31 1019.54 1019.71 1019.82 1019.90 1019.96 1020.02 1020.09 1020.16 1020.25 1020.34 1020.42 1020.51 1020.58
1009.46 1009.99 1010.41 1010.67 1010.78 1010.78 1010.72 1010.68 1010.74 1010.95 1011.32 1011.84 1012.48 1013.17 1013.86 1014.49 1015.02 1015.45 1015.80 1016.09 1016.36 1016.65 1016.98 1017.35 1017.76 1018.18 1018.59 1018.96 1019.28 1019.53 1019.71 1019.85 1019.95 1020.03 1020.10 1020.18 1020.26 1020.34 1020.41 1020.48 1020.53 1020.58 1020.62
1009.91 1010.34 1010.64 1010.78 1010.77 1010.66 1010.52 1010.45 1010.51 1010.76 1011.20 1011.82 1012.56 1013.36 1014.15 1014.86 1015.47 1015.96 1016.35 1016.68 1016.97 1017.27 1017.58 1017.93 1018.30 1018.66 1019.01 1019.31 1019.56 1019.75 1019.90 1020.01 1020.11 1020.21 1020.31 1020.42 1020.52 1020.61 1020.69 1020.74 1020.77 1020.78 1020.78
1010.48 1010.79 1010.96 1010.97 1010.85 1010.65 1010.45 1010.34 1010.42 1010.70 1011.21 1011.91 1012.74 1013.63 1014.50 1015.28 1015.96 1016.50 1016.94 1017.30 1017.61 1017.90 1018.21 1018.52 1018.84 1019.14 1019.42 1019.66 1019.85 1020.00 1020.13 1020.24 1020.36 1020.50 1020.64 1020.78 1020.92 1021.03 1021.11 1021.16 1021.17 1021.16 1021.13
1011.18 1011.37 1011.42 1011.31 1011.09 1010.82 1010.58 1010.46 1010.54 1010.86 1011.42 1012.17 1013.06 1014.00 1014.92 1015.76 1016.47 1017.05 1017.52 1017.90 1018.22 1018.51 1018.80 1019.08 1019.36 1019.61 1019.83 1020.02 1020.18 1020.31 1020.44 1020.58 1020.73 1020.90 1021.09 1021.28 1021.46 1021.59 1021.69 1021.73 1021.74 1021.70 1021.66
1011.99 1012.08 1012.02 1011.83 1011.54 1011.23 1010.97 1010.85 1010.95 1011.30 1011.88 1012.65 1013.56 1014.51 1015.44 1016.29 1017.01 1017.60 1018.07 1018.46 1018.78 1019.07 1019.34 1019.60 1019.85 1020.06 1020.26 1020.42 1020.56 1020.70 1020.84 1021.00 1021.20 1021.42 1021.65 1021.88 1022.09 1022.25 1022.35 1022.40 1022.40 1022.36 1022.29
1012.86 1012.87 1012.76 1012.52 1012.21 1011.89 1011.64 1011.54 1011.66 1012.02 1012.60 1013.37 1014.25 1015.18 1016.07 1016.88 1017.58 1018.15 1018.61 1018.99 1019.31 1019.59 1019.86 1020.10 1020.33 1020.53 1020.71 1020.86 1021.01 1021.15 1021.32 1021.51 1021.74 1021.99 1022.25 1022.51 1022.73 1022.91 1023.02 1023.07 1023.07 1023.02 1022.94
1013.74 1013.72 1013.58 1013.35 1013.05 1012.75 1012.54 1012.48 1012.63 1013.00 1013.57 1014.30 1015.13 1015.99 1016.81 1017.55 1018.19 1018.72 1019.16 1019.52 1019.83 1020.11 1020.38 1020.62 1020.84 1021.04 1021.22 1021.38 1021.53 1021.68 1021.86 1022.06 1022.30 1022.56 1022.82 1023.08 1023.30 1023.48 1023.60 1023.65 1023.65 1023.60 1023.51
1014.58 1014.56 1014.45 1014.24 1013.99 1013.76 1013.62 1013.61 1013.79 1014.17 1014.72 1015.39 1016.15 1016.91 1017.65 1018.30 1018.86 1019.34 1019.74 1020.08 1020.39 1020.68 1020.95 1021.20 1021.43 1021.64 1021.81 1021.97 1022.12 1022.26 1022.43 1022.62 1022.83 1023.06 1023.30 1023.54 1023.74 1023.90 1024.00 1024.06 1024.06 1024.02 1023.93
1015.35 1015.37 1015.29 1015.15 1014.97 1014.83 1014.76 1014.82 1015.05 1015.43 1015.95 1016.58 1017.25 1017.92 1018.55 1019.11 1019.60 1020.02 1020.38 1020.72 1021.02 1021.32 1021.61 1021.87 1022.11 1022.32 1022.50 1022.64 1022.77 1022.89 1023.01 1023.15 1023.31 1023.48 1023.66 1023.84 1023.99 1024.12 1024.22 1024.27 1024.28 1024.25 1024.17
1016.05 1016.10 1016.08 1016.01 1015.92 1015.87 1015.89 1016.03 1016.30 1016.70 1017.20 1017.76 1018.36 1018.94 1019.48 1019.96 1020.38 1020.76 1021.10 1021.43 1021.75 1022.06 1022.36 1022.64 1022.90 1023.10 1023.26 1023.38 1023.46 1023.52 1023.58 1023.64 1023.71 1023.80 1023.89 1023.99 1024.09 1024.18 1024.24 1024.29 1024.31 1024.30 1024.23
1016.69 1016.78 1016.82 1016.81 1016.81 1016.84 1016.95 1017.15 1017.47 1017.88 1018.37 1018.90 1019.43 1019.93 1020.40 1020.82 1021.19 1021.54 1021.87 1022.20 1022.53 1022.86 1023.18 1023.48 1023.73 1023.92 1024.05 1024.13 1024.15 1024.14 1024.11 1024.08 1024.05 1024.03 1024.03 1024.05 1024.07 1024.11 1024.15 1024.18 1024.20 1024.20 1024.14
1017.32 1017.44 1017.51 1017.56 1017.62 1017.73 1017.91 1018.17 1018.53 1018.96 1019.44 1019.93 1020.41 1020.86 1021.27 1021.65 1021.99 1022.32 1022.65 1022.99 1023.33 1023.68 1024.01 1024.30 1024.54 1024.71 1024.81 1024.83 1024.79 1024.70 1024.59 1024.46 1024.33 1024.22 1024.12 1024.05 1024.01 1023.98 1023.98 1024.00 1024.01 1024.00 1023.94
1017.97 1018.11 1018.20 1018.29 1018.39 1018.55 1018.79 1019.10 1019.49 1019.92 1020.39 1020.86 1021.30 1021.71 1022.08 1022.42 1022.74 1023.06 1023.38 1023.73 1024.08 1024.43 1024.76 1025.04 1025.25 1025.39 1025.45 1025.42 1025.33 1025.18 1024.99 1024.78 1024.58 1024.38 1024.20 1024.05 1023.94 1023.86 1023.81 1023.78 1023.76 1023.72 1023.65
1018.68 1018.82 1018.92 1019.02 1019.16 1019.35 1019.62 1019.96 1020.36 1020.80 1021.25 1021.69 1022.10 1022.47 1022.81 1023.11 1023.41 1023.71 1024.03 1024.37 1024.71 1025.05 1025.36 1025.61 1025.80 1025.90 1025.92 1025.85 1025.72 1025.52 1025.29 1025.04 1024.78 1024.52 1024.29 1024.08 1023.90 1023.75 1023.64 1023.55 1023.47 1023.39 1023.27
1019.46 1019.59 1019.69 1019.80 1019.95 1020.16 1020.44 1020.79 1021.19 1021.62 1022.05 1022.46 1022.83 1023.16 1023.45 1023.72 1023.99 1024.27 1024.56 1024.87 1025.19 1025.50 1025.77 1025.99 1026.14 1026.20 1026.19 1026.10 1025.94 1025.73 1025.48 1025.21 1024.94 1024.66 1024.38 1024.13 1023.89 1023.67 1023.48 1023.31 1023.15 1022.99 1022.81
1020.29 1020.41 1020.51 1020.62 1020.77 1020.99 1021.27 1021.62 1022.02 1022.42 1022.82 1023.18 1023.50 1023.78 1024.03 1024.26 1024.48 1024.72 1024.97 1025.24 1025.51 1025.77 1025.99 1026.17 1026.27 1026.31 1026.27 1026.17 1026.01 1025.81 1025.58 1025.32 1025.05 1024.77 1024.47 1024.18 1023.88 1023.59 1023.31 1023.04 1022.78 1022.53 1022.26
1021.14 1021.26 1021.35 1021.46 1021.62 1021.84 1022.12 1022.45 1022.82 1023.20 1023.55 1023.86 1024.13 1024.36 1024.54 1024.72 1024.89 1025.07 1025.27 1025.49 1025.70 1025.90 1026.07 1026.19 1026.26 1026.26 1026.21 1026.10 1025.96 1025.79 1025.59 1025.36 1025.11 1024.84 1024.54 1024.21 1023.86 1023.49 1023.11 1022.73 1022.36 1021.99 1021.64
1021.97 1022.08 1022.18 1022.29 1022.45 1022.66 1022.94 1023.26 1023.59 1023.93 1024.23 1024.50 1024.70 1024.87 1025.00 1025.12 1025.24 1025.37 1025.51 1025.66 1025.82 1025.96 1026.07 1026.14 1026.17 1026.15 1026.08 1025.98 1025.86 1025.71 1025.55 1025.36 1025.13 1024.87 1024.56 1024.19 1023.78 1023.33 1022.85 1022.36 1021.88 1021.42 1020.97
1022.72 1022.83 1022.93 1023.05 1023.21 1023.42 1023.68 1023.98 1024.29 1024.58 1024.84 1025.05 1025.20 1025.32 1025.40 1025.47 1025.54 1025.62 1025.71 1025.82 1025.92 1026.02 1026.08 1026.11 1026.10 1026.05 1025.98 1025.88 1025.77 1025.64 1025.49 1025.32 1025.11 1024.84 1024.51 1024.11 1023.64 1023.11 1022.54 1021.96 1021.38 1020.83 1020.32
1023.35 1023.46 1023.56 1023.68 1023.84 1024.05 1024.30 1024.57 1024.85 1025.10 1025.32 1025.48 1025.59 1025.67 1025.71 1025.75 1025.79 1025.84 1025.91 1025.98 1026.06 1026.11 1026.15 1026.14 1026.10 1026.04 1025.94 1025.83 1025.72 1025.59 1025.44 1025.26 1025.04 1024.75 1024.39 1023.94 1023.42 1022.82 1022.19 1021.53 1020.89 1020.29 1019.74
1023.84 1023.94 1024.04 1024.15 1024.31 1024.50 1024.74 1024.99 1025.24 1025.46 1025.63 1025.77 1025.85 1025.90 1025.93 1025.96 1025.99 1026.04 1026.10 1026.17 1026.23 1026.27 1026.29 1026.26 1026.20 1026.11 1025.99 1025.86 1025.72 1025.56 1025.39 1025.18 1024.92 1024.59 1024.19 1023.70 1023.12 1022.49 1021.80 1021.11 1020.44 1019.82 1019.27
1024.17 1024.26 1024.35 1024.46 1024.60 1024.78 1024.99 1025.22 1025.43 1025.62 1025.78 1025.88 1025.96 1026.00 1026.03 1026.07 1026.12 1026.19 1026.27 1026.35 1026.42 1026.47 1026.48 1026.45 1026.37 1026.26 1026.11 1025.94 1025.75 1025.55 1025.32 1025.06 1024.74 1024.37 1023.91 1023.38 1022.78 1022.12 1021.42 1020.73 1020.07 1019.46 1018.94
1024.36 1024.44 1024.51 1024.60 1024.73 1024.88 1025.07 1025.26 1025.45 1025.61 1025.74 1025.84 1025.91 1025.97 1026.02 1026.08 1026.16 1026.26 1026.38 1026.49 1026.59 1026.66 1026.68 1026.65 1026.56 1026.42 1026.24 1026.02 1025.78 1025.51 1025.22 1024.89 1024.51 1024.08 1023.58 1023.02 1022.41 1021.75 1021.07 1020.41 1019.79 1019.23 1018.75
1024.45 1024.51 1024.56 1024.63 1024.73 1024.86 1025.01 1025.17 1025.33 1025.46 1025.58 1025.67 1025.74 1025.81 1025.89 1025.99 1026.11 1026.25 1026.41 1026.56 1026.69 1026.78 1026.82 1026.79 1026.70 1026.54 1026.32 1026.06 1025.76 1025.42 1025.06 1024.67 1024.23 1023.75 1023.23 1022.66 1022.05 1021.42 1020.78 1020.17 1019.61 1019.11 1018.68
1024.47 1024.51 1024.54 1024.59 1024.66 1024.76 1024.88 1025.00 1025.12 1025.23 1025.33 1025.41 1025.49 1025.58 1025.68 1025.81 1025.97 1026.15 1026.34 1026.53 1026.69 1026.81 1026.86 1026.84 1026.74 1026.57 1026.32 1026.02 1025.67 1025.29 1024.87 1024.42 1023.94 1023.43 1022.89 1022.33 1021.75 1021.16 1020.58 1020.04 1019.54 1019.09 1018.71
Thickness
5793 5797 5798 5798 5797 5792 5786 5784 5784 5782 5776 5770 5763 5757 5750 5747 5743 5740 5736 5731 5727 5723 5719 5714 5710 5707 5702 5698 5694 5689 5684 5679 5677 5673 5668 5666 5664 5661 5658 5656 5652 5649 5647
5785 5789 5790 5790 5789 5788 5785 5780 5781 5779 5774 5767 5761 5753 5744 5737 5732 5728 5724 5720 5717 5714 5711 5706 5702 5698 5694 5690 5687 5683 5677 5672 5669 5666 5660 5655 5654 5653 5652 5649 5645 5642 5639
5780 5782 5786 5786 5786 5784 5782 5780 5777 5773 5768 5761 5752 5743 5734 5726 5720 5716 5713 5708 5706 5703 5700 5697 5693 5689 5686 5682 5678 5676 5672 5665 5662 5659 5655 5649 5645 5642 5641 5639 5636 5634 5630
5771 5775 5779 5780 5782 5781 5779 5776 5770 5765 5760 5753 5745 5735 5728 5719 5712 5707 5702 5698 5695 5692 5689 5686 5683 5679 5676 5672 5669 5667 5663 5659 5654 5651 5648 5644 5640 5634 5629 5627 5625 5623 5619
5758 5763 5768 5770 5773 5774 5773 5769 5764 5756 5750 5744 5739 5731 5722 5714 5706 5699 5693 5687 5683 5680 5678 5675 5673 5669 5665 5662 5659 5656 5653 5650 5645 5641 5637 5634 5629 5624 5619 5614 5611 5609 5606
5744 5748 5753 5757 5760 5762 5761 5757 5751 5743 5738 5733 5728 5722 5713 5705 5696 5688 5681 5676 5672 5669 5666 5663 5661 5657 5654 5651 5647 5644 5641 5637 5633 5629 5625 5621 5616 5611 5607 5601 5596 5592 5590
5729 5733 5736 5740 5742 5744 5744 5742 5736 5729 5724 5719 5714 5708 5701 5694 5685 5677 5671 5666 5661 5656 5653 5651 5648 5645 5642 5638 5634 5630 5626 5623 5619 5615 5610 5606 5601 5597 5592 5586 5580 5576 5573
5714 5716 5718 5721 5724 5725 5726 5724 5721 5714 5709 5703 5697 5691 5686 5679 5672 5665 5660 5655 5649 5645 5641 5639 5636 5632 5628 5624 5620 5616 5612 5608 5604 5600 5595 5590 5585 5582 5577 5571 5565 5558 5553
5698 5700 5702 5704 5705 5705 5705 5704 5702 5696 5691 5687 5681 5675 5670 5664 5658 5652 5647 5642 5636 5633 5629 5626 5622 5617 5613 5609 5605 5601 5596 5592 5588 5583 5579 5574 5569 5565 5560 5555 5550 5542 5535
5683 5684 5686 5687 5687 5686 5685 5684 5682 5677 5673 5670 5665 5659 5653 5648 5643 5638 5632 5627 5623 5619 5615 5611 5607 5602 5598 5594 5590 5584 5580 5575 5570 5566 5561 5556 5552 5548 5544 5538 5533 5527 5520
5667 5669 5669 5670 5670 5670 5668 5666 5663 5660 5656 5652 5647 5643 5637 5633 5628 5622 5617 5613 5608 5604 5600 5596 5591 5586 5581 5576 5572 5567 5562 5557 5553 5549 5545 5540 5536 5531 5526 5522 5516 5510 5505
5652 5653 5654 5655 5654 5653 5651 5649 5646 5643 5639 5636 5632 5627 5622 5618 5613 5607 5602 5598 5594 5589 5585 5579 5574 5568 5562 5557 5553 5548 5544 5540 5535 5532 5528 5524 5521 5515 5510 5505 5500 5495 5490
5639 5639 5639 5639 5639 5637 5634 5632 5629 5626 5623 5620 5616 5611 5605 5601 5596 5591 5586 5582 5577 5572 5567 5561 5554 5548 5543 5538 5534 5530 5526 5522 5518 5515 5512 5508 5504 5499 5495 5491 5485 5480 5477
5626 5625 5624 5623 5622 5620 5618 5615 5612 5609 5606 5603 5599 5594 5588 5583 5578 5573 5569 5564 5559 5554 5548 5541 5535 5530 5525 5520 5516 5512 5507 5504 5501 5499 5496 5493 5489 5485 5481 5477 5472 5467 5463
5612 5610 5608 5606 5605 5603 5601 5599 5596 5592 5589 5586 5581 5576 5571 5566 5561 5556 5550 5546 5541 5535 5529 5523 5517 5512 5507 5502 5498 5494 5490 5486 5484 5482 5480 5478 5476 5473 5468 5465 5460 5455 5450
5599 5595 5593 5591 5589 5587 5585 5583 5579 5575 5572 5569 5564 5559 5554 5549 5544 5539 5534 5529 5523 5517 5511 5506 5500 5496 5491 5486 5482 5478 5473 5470 5467 5465 5464 5463 5461 5459 5456 5453 5450 5446 5442
5585 5582 5579 5576 5574 5571 5569 5566 5562 5559 5556 5551 5546 5541 5536 5531 5527 5522 5517 5511 5505 5500 5494 5488 5484 5478 5474 5470 5466 5462 5458 5454 5452 5450 5449 5448 5448 5446 5443 5440 5438 5436 5435
5571 5568 5565 5562 5558 5556 5553 5550 5547 5543 5538 5534 5529 5525 5520 5514 5509 5504 5499 5494 5489 5484 5478 5473 5467 5462 5458 5454 5450 5446 5443 5440 5437 5436 5435 5434 5433 5434 5432 5430 5428 5428 5429
5558 5554 5552 5549 5546 5542 5539 5536 5532 5528 5524 5519 5513 5508 5503 5498 5494 5488 5483 5478 5473 5468 5463 5458 5453 5448 5443 5439 5435 5432 5427 5424 5423 5423 5423 5422 5422 5423 5423 5422 5421 5423 5427
5545 5542 5539 5537 5534 5530 5527 5523 5518 5514 5509 5505 5500 5495 5490 5484 5479 5474 5469 5464 5459 5454 5449 5444 5439 5435 5430 5426 5422 5418 5413 5411 5410 5412 5412 5413 5414 5415 5416 5416 5417 5419 5424
5534 5531 5528 5525 5522 5519 5515 5510 5506 5501 5497 5493 5488 5483 5477 5471 5465 5460 5455 5450 5446 5440 5435 5430 5426 5422 5417 5413 5409 5406 5402 5401 5400 5401 5404 5406 5409 5411 5414 5416 5418 5421 5424
5525 5521 5518 5514 5511 5508 5504 5498 5494 5490 5486 5481 5476 5470 5465 5460 5454 5448 5442 5437 5431 5425 5420 5416 5412 5408 5403 5400 5396 5395 5394 5394 5393 5395 5398 5402 5406 5410 5415 5419 5422 5425 5426
5515 5512 5508 5504 5501 5498 5494 5488 5484 5481 5477 5471 5465 5460 5454 5449 5443 5437 5432 5425 5419 5414 5408 5403 5399 5395 5392 5389 5387 5386 5387 5388 5389 5392 5397 5402 5407 5412 5417 5422 5425 5427 5428
5507 5503 5499 5495 5491 5489 5485 5481 5477 5473 5467 5462 5456 5451 5445 5440 5434 5428 5423 5417 5411 5405 5400 5395 5390 5387 5384 5382 5381 5381 5383 5385 5389 5393 5398 5404 5409 5415 5419 5423 5426 5429 5429
5500 5496 5492 5488 5485 5482 5478 5475 5470 5466 5460 5455 5449 5443 5438 5433 5427 5421 5416 5411 5406 5402 5396 5391 5387 5384 5381 5381 5380 5380 5383 5385 5389 5394 5399 5405 5411 5416 5420 5424 5428 5430 5431
5494 5490 5486 5483 5479 5476 5472 5469 5465 5461 5455 5449 5444 5438 5434 5429 5423 5417 5411 5407 5403 5399 5395 5391 5387 5384 5382 5382 5382 5384 5387 5391 5395 5398 5402 5407 5411 5415 5419 5423 5427 5430 5431